HMU-SAT2

Last updated on Fri Sep 04 2026 00:02:05 GMT+0000 (Coordinated Universal Time)

1 67688U 98067YE 26246.32446296 .00087963 00000+0 56880-3 0 9993 2 67688 51.6238 254.7840 0007723 78.0166 282.1699 15.75294138 32488
UTC large
Height (km)
Speed (km/s)
/
Latitude / Longitude
Inclination (degrees)
Orbital Period (minutes)
Azimuth
Elevation
Range (km)
Doppler Factor

Next 0 passes for location: London (51.5072 / 0.1276)

No passes found over London.
HMU-SAT2